User: anonymous   Login
Location: Unspecified
(0.0000°N, 0.0000°E)
Time: 02:12:24
(UTC+00:00)
Language:

STARLINK-5497 - Orbit

View from above orbital plane
View from above orbital plane
View from above satellite
View from above satellite

Ground track
Ground track

The orbit is defined by the following mean orbital elements,

1 55629U          26145.58494358 +.00000000 +00000-0 +50316-4 0 00003
2 55629  69.9998  10.6894 0002741 269.5911  90.4934 14.98332121    07
Epoch (UTC): 25 May 2026 14:02:19
Eccentricity: 0.0002741
inclination: 69.9998°
perigee height: 570 km
apogee height: 574 km
right ascension of ascending node: 10.6894°
argument of perigee: 269.5911°
revolutions per day: 14.98332121
mean anomaly at epoch: 90.4934°

The dashed part of the orbit path shows where the satellite is in the earth's shadow,  

DLR